| time (UTC) | temp F | wind direction | speed MPH | gust MPH | rain 1hr in | rain 24hr in | rain mn in | humidity % | barometer mb |
| 20260504021506 | 60 | 117 | 5.0 | 8.0 | 0.00 | 0.00 | 0.00 | 25 | 941.1 |
| 20260504020006 | 61 | 117 | 4.0 | 8.0 | 0.00 | 0.00 | 0.00 | 24 | 941.1 |
| 20260504014601 | 62 | 128 | 3.0 | 6.0 | 0.00 | 0.00 | 0.00 | 24 | 941.3 |
| 20260504014502 | 62 | 164 | 2.0 | 5.0 | 0.00 | 0.00 | 0.00 | 23 | 941.3 |
| 20260504013005 | 63 | 127 | 2.0 | 8.0 | 0.00 | 0.00 | 0.00 | 22 | 941.5 |
| 20260504011557 | 65 | 180 | 5.0 | 9.0 | 0.00 | 0.00 | 0.00 | 21 | 941.7 |
| 20260504011505 | 65 | 163 | 5.0 | 9.0 | 0.00 | 0.00 | 0.00 | 21 | 941.7 |
| 20260504010055 | 66 | 209 | 4.0 | 10.0 | 0.00 | 0.00 | 0.00 | 19 | 941.8 |
| 20260504004601 | 67 | 201 | 0.0 | 10.0 | 0.00 | 0.00 | 0.00 | 15 | 941.9 |
| 20260504003046 | 67 | 254 | 7.0 | 14.0 | 0.00 | 0.00 | 0.00 | 15 | 942.1 |
| 20260504001556 | 68 | 246 | 5.0 | 12.0 | 0.00 | 0.00 | 0.00 | 17 | 942.1 |
| 20260504000042 | 68 | 267 | 0.0 | 7.0 | 0.00 | 0.00 | 0.00 | 16 | 942.1 |
| 20260503234542 | 67 | 273 | 0.0 | 10.0 | 0.00 | 0.00 | 0.00 | 18 | 942.4 |
| 20260503233047 | 67 | 202 | 7.0 | 13.0 | 0.00 | 0.00 | 0.00 | 17 | 942.4 |
| 20260503231554 | 67 | 285 | 6.0 | 17.0 | 0.00 | 0.00 | 0.00 | 16 | 942.6 |
| 20260503230050 | 67 | 252 | 9.0 | 16.0 | 0.00 | 0.00 | 0.00 | 16 | 942.6 |
| 20260503224542 | 67 | 229 | 8.0 | 16.0 | 0.00 | 0.00 | 0.00 | 16 | 942.8 |
| 20260503223039 | 67 | 288 | 11.0 | 20.0 | 0.00 | 0.00 | 0.00 | 17 | 942.9 |
| 20260503221530 | 67 | 257 | 7.0 | 18.0 | 0.00 | 0.00 | 0.00 | 18 | 943.0 |
| 20260503220015 | 68 | 281 | 7.0 | 15.0 | 0.00 | 0.00 | 0.00 | 17 | 943.4 |
| 20260503214551 | 67 | 351 | 7.0 | 20.0 | 0.00 | 0.00 | 0.00 | 15 | 943.5 |
| 20260503213029 | 68 | 254 | 8.0 | 16.0 | 0.00 | 0.00 | 0.00 | 17 | 943.7 |
| 20260503211507 | 67 | 283 | 8.0 | 16.0 | 0.00 | 0.00 | 0.00 | 17 | 943.8 |
| 20260503210041 | 67 | 327 | 3.0 | 16.0 | 0.00 | 0.00 | 0.00 | 20 | 944.0 |
| 20260503204520 | 67 | 198 | 8.0 | 17.0 | 0.00 | 0.00 | 0.00 | 16 | 944.1 |
| 20260503203101 | 67 | 263 | 10.0 | 19.0 | 0.00 | 0.00 | 0.00 | 17 | 944.4 |
| 20260503203003 | 67 | 266 | 9.0 | 19.0 | 0.00 | 0.00 | 0.00 | 17 | 944.4 |
| 20260503201535 | 67 | 290 | 5.0 | 17.0 | 0.00 | 0.00 | 0.00 | 21 | 944.4 |
| 20260503200015 | 67 | 252 | 10.0 | 16.0 | 0.00 | 0.00 | 0.00 | 17 | 944.7 |
| 20260503194550 | 67 | 223 | 6.0 | 13.0 | 0.00 | 0.00 | 0.00 | 17 | 944.9 |
| 20260503193038 | 65 | 258 | 7.0 | 16.0 | 0.00 | 0.00 | 0.00 | 17 | 945.1 |
| 20260503191505 | 66 | 288 | 4.0 | 11.0 | 0.00 | 0.00 | 0.00 | 18 | 945.2 |
| 20260503190049 | 65 | 270 | 6.0 | 14.0 | 0.00 | 0.00 | 0.00 | 17 | 945.5 |
| 20260503184523 | 64 | 218 | 5.0 | 12.0 | 0.00 | 0.00 | 0.00 | 18 | 945.6 |
| 20260503183057 | 64 | 249 | 5.0 | 12.0 | 0.00 | 0.00 | 0.00 | 22 | 945.7 |
| 20260503181538 | 64 | 277 | 5.0 | 10.0 | 0.00 | 0.00 | 0.00 | 21 | 945.8 |
| 20260503180013 | 64 | 271 | 2.0 | 7.0 | 0.00 | 0.00 | 0.00 | 20 | 945.9 |
| 20260503174605 | 63 | 189 | 3.0 | 6.0 | 0.00 | 0.00 | 0.00 | 23 | 946.1 |
| 20260503173027 | 63 | 133 | 2.0 | 7.0 | 0.00 | 0.00 | 0.00 | 21 | 946.2 |
| 20260503171507 | 62 | 71 | 3.0 | 10.0 | 0.00 | 0.00 | 0.00 | 22 | 946.3 |
| 20260503140109 | 49 | 44 | 2.0 | 8.0 | 0.00 | 0.00 | 0.00 | 37 | 947.1 |
| 20260503100130 | 50 | 96 | 11.0 | 16.0 | 0.00 | 0.00 | 0.00 | 28 | 946.8 |
| 20260503081540 | 51 | 130 | 10.0 | 15.0 | 0.00 | 0.00 | 0.00 | 27 | 947.4 |
| 20260503071553 | 51 | 136 | 9.0 | 15.0 | 0.00 | 0.00 | 0.00 | 27 | 947.8 |
| 20260503054547 | 53 | 128 | 11.0 | 15.0 | 0.00 | 0.00 | 0.00 | 26 | 948.0 |
| 20260503053049 | 53 | 121 | 10.0 | 16.0 | 0.00 | 0.00 | 0.00 | 26 | 948.0 |
| 20260503051553 | 53 | 100 | 11.0 | 16.0 | 0.00 | 0.00 | 0.00 | 25 | 948.0 |
| 20260503051501 | 53 | 117 | 11.0 | 16.0 | 0.00 | 0.00 | 0.00 | 25 | 948.0 |
| 20260503050003 | 53 | 98 | 11.0 | 15.0 | 0.00 | 0.00 | 0.00 | 23 | 948.0 |
| 20260503044513 | 53 | 117 | 12.0 | 15.0 | 0.00 | 0.00 | 0.00 | 23 | 948.1 |
| 20260503043013 | 53 | 129 | 8.0 | 14.0 | 0.00 | 0.00 | 0.00 | 23 | 948.2 |
| 20260503041519 | 54 | 114 | 10.0 | 14.0 | 0.00 | 0.00 | 0.00 | 23 | 948.3 |
| 20260503040027 | 54 | 113 | 8.0 | 13.0 | 0.00 | 0.00 | 0.00 | 23 | 948.2 |
| 20260503034529 | 54 | 105 | 8.0 | 14.0 | 0.00 | 0.00 | 0.00 | 23 | 948.2 |
| 20260503033036 | 54 | 119 | 7.0 | 12.0 | 0.00 | 0.00 | 0.00 | 24 | 948.2 |
| 20260503031531 | 55 | 111 | 7.0 | 10.0 | 0.00 | 0.00 | 0.00 | 24 | 948.0 |
| 20260503030023 | 55 | 123 | 5.0 | 10.0 | 0.00 | 0.00 | 0.00 | 24 | 948.0 |
| 20260503024510 | 56 | 140 | 6.0 | 9.0 | 0.00 | 0.00 | 0.00 | 22 | 947.9 |
| 20260503023044 | 57 | 126 | 3.0 | 9.0 | 0.00 | 0.00 | 0.00 | 22 | 947.8 |